Volver al catálogo

STARLINK-34667

ActivoComunicacionesVLEO
NORAD 64815·PAYLOAD·🇺🇸 United States

Lanzado Jul 16, 2025 desde Vandenberg Space Force Base

Loading…

Próximos Pases (próximas 24 horas)

TLE

ActualizadoSource: CelesTrak SupGP

Época: Sep 14, 2026, 23:00 UTC

1 64815C 25150AB  26257.95881944 -.00049891  00000+0 -41819-2 0  2571
2 64815  70.0023  17.2456 0003113 270.8143 217.3779 14.98348071    18

Sigue STARLINK-34667 en tiempo real con AllMySat

Download on the App Store